time_stamp(utc),avg(mph),gust(mph),direction(deg),12m_air_temp(f),sonic_u(cm/s),sonic_v(cm/s),sonic_w(cm/s),pressure,2m_air_temp(f),pyranometer(W/m^2)
"2019-02-08 00:02:07+00",6.8,7.8,,39.1,291,48,18,1017.56,39.2,0
"2019-02-08 00:07:07+00",6.3,7.3,,39.1,267,78,15,1017.7,39.2,0
"2019-02-08 00:12:07+00",5.4,6.4,,39.2,234,37,11,1018.01,39.2,0
"2019-02-08 00:17:07+00",5.8,6.8,,39.1,250,40,15,1017.93,39.2,0
"2019-02-08 00:22:07+00",6.6,7.6,,39.2,285,40,12,1017.74,39.2,0
"2019-02-08 00:27:07+00",5.6,6.6,,39.2,231,71,28,1017.79,39.3,0
"2019-02-08 00:32:07+00",6.0,7.0,,39.1,223,130,12,1017.77,39.2,0
"2019-02-08 00:37:07+00",5.7,6.7,,39.1,202,131,6,1018.12,39.2,0
"2019-02-08 00:42:07+00",6.2,7.2,,39.2,237,126,8,1017.85,39.2,0
"2019-02-08 00:47:07+00",6.5,7.5,,39.2,277,55,11,1017.65,39.2,0
"2019-02-08 00:52:07+00",7.1,7.1,,39.2,309,45,16,1017.33,39.2,0
"2019-02-08 00:57:07+00",7.5,8.5,,39.2,343,24,1,1017.17,39.2,0
"2019-02-08 01:02:07+00",7.1,8.1,,39.2,418,32,-32,1017.08,39.2,0
"2019-02-08 01:07:07+00",6.6,7.6,,39.2,556,87,-128,1017.35,39.2,0
"2019-02-08 01:12:07+00",6.4,7.4,,39.2,834,72,-245,1017.15,39.2,0
"2019-02-08 01:17:07+00",7.7,8.7,,39.2,708,41,-162,1017.03,39.2,0
"2019-02-08 01:32:07+00",8.3,9.3,,39.1,370,1,20,1016.71,39.2,0
"2019-02-08 01:37:07+00",9.1,11.1,,39.1,1299,-1474,814,1016.57,39.2,0
"2019-02-08 01:42:07+00",10.2,11.2,,39,477,-54,45,1016.35,39.1,0
"2019-02-08 01:47:07+00",11.6,12.6,,38.8,1246,-1298,731,1015.86,38.9,0
"2019-02-08 01:52:07+00",9.8,10.8,,38.8,629,-331,206,1015.97,38.8,0
"2019-02-08 01:57:07+00",10.4,11.4,,38.9,562,-217,103,1016.02,38.9,0
"2019-02-08 02:02:07+00",8.6,10.6,,39,18,501,-317,1016.04,38.9,0
"2019-02-08 02:07:07+00",9.1,11.1,,38.9,638,-470,230,1015.73,38.9,0
"2019-02-08 02:12:07+00",10.6,12.6,,38.9,461,-93,14,1015.44,38.9,0
"2019-02-08 02:17:07+00",10.3,12.3,,39,418,-137,-1,1015.4,38.9,0
"2019-02-08 02:22:07+00",10.8,11.8,,39.1,1069,-1328,638,1015.39,39,0
"2019-02-08 02:27:07+00",9.1,10.1,,39.1,319,-110,-27,1015.35,39,0
"2019-02-08 02:32:07+00",8.2,10.2,,39.1,152,136,-147,1015.43,39,0
"2019-02-08 02:37:07+00",8.8,9.8,,39.1,562,-484,195,1015.53,39.1,0
"2019-02-08 02:42:07+00",8.6,10.6,,39.2,328,-148,-15,1015.38,39.1,0
"2019-02-08 02:47:07+00",8.9,9.9,,39.1,362,-166,4,1015.23,39,0
"2019-02-08 02:52:07+00",8.2,9.2,,39.1,335,-121,8,1015.13,39,0
"2019-02-08 02:57:07+00",8.3,10.3,,39.1,5,334,-279,1014.95,39,0
"2019-02-08 03:02:07+00",6.6,8.6,,39.1,363,-410,140,1014.99,39,0
"2019-02-08 03:07:07+00",10.5,11.5,,39.2,54,228,-289,1014.75,39,0
"2019-02-08 03:12:07+00",7.7,9.7,,39.3,140,-129,-73,1014.87,39.2,0
"2019-02-08 03:17:07+00",8.2,10.2,,39.4,12,238,-233,1014.85,39.2,0
"2019-02-08 03:22:07+00",7.3,9.3,,39.4,117,21,-113,1014.86,39.3,0
"2019-02-08 03:27:07+00",8.4,9.4,,39.5,-64,372,-328,1014.72,39.4,0
"2019-02-08 03:32:07+00",9.4,10.4,,39.6,-888,1886,-1153,1014.49,39.4,0
"2019-02-08 03:37:07+00",7.3,9.3,,39.5,151,55,-107,1014.49,39.4,0
"2019-02-08 03:42:07+00",6.0,7.0,,39.4,242,-82,5,1014.52,39.3,0
"2019-02-08 03:47:07+00",7.3,9.3,,39.4,-42,421,-298,1014.3,39.3,0
"2019-02-08 03:52:07+00",8.3,9.3,,39.4,210,67,-110,1014.05,39.3,0
"2019-02-08 03:57:07+00",6.8,7.8,,39.4,280,-117,-3,1014.19,39.3,0
"2019-02-08 04:02:07+00",5.6,6.6,,39.4,206,7,-22,1014.22,39.3,0
"2019-02-08 04:07:07+00",5.9,5.9,,39.4,241,-96,-2,1014.27,39.3,0
"2019-02-08 04:12:07+00",5.3,6.3,,39.4,270,-94,-25,1014.23,39.3,0
"2019-02-08 04:17:07+00",4.9,5.9,,39.5,816,-48,-363,1014.34,39.3,0
"2019-02-08 04:22:07+00",5.2,6.2,,39.5,84,2600,-2144,1014.3,39.4,0
"2019-02-08 04:27:07+00",5.3,6.3,,39.4,588,-73,-188,1014.13,39.4,0
"2019-02-08 04:32:07+00",5.1,6.1,,39.5,1196,-68,-459,1013.97,39.3,0
"2019-02-08 04:37:07+00",4.8,5.8,,39.5,555,-90,-186,1014.01,39.4,0
"2019-02-08 04:42:07+00",4.0,5.0,,39.5,397,-54,-110,1014.02,39.3,0
"2019-02-08 04:47:07+00",5.8,5.8,,39.5,-306,1370,-973,1013.85,39.4,0
"2019-02-08 04:52:07+00",6.3,7.3,,39.6,449,-93,-105,1013.57,39.4,0
"2019-02-08 04:57:07+00",6.0,7.0,,39.5,450,-108,-117,1013.47,39.3,0
"2019-02-08 05:02:07+00",5.2,5.2,,39.6,300,-73,-49,1013.62,39.4,0
"2019-02-08 05:07:07+00",3.6,4.6,,39.6,415,-26,-123,1013.79,39.4,0
"2019-02-08 05:12:07+00",4.6,5.6,,39.7,603,-34,-191,1013.67,39.5,0
"2019-02-08 05:17:07+00",4.0,5.0,,39.6,895,59,-440,1013.61,39.4,0
"2019-02-08 05:22:07+00",4.8,5.8,,39.6,880,-67,-318,1013.43,39.4,0
"2019-02-08 05:27:07+00",5.0,6.0,,39.6,911,-71,-338,1013.16,39.4,0
"2019-02-08 05:32:07+00",5.3,5.3,,39.6,1671,-61,-681,1013.04,39.4,0
"2019-02-08 05:37:07+00",6.2,7.2,,39.6,799,-32,-293,1012.82,39.4,0
"2019-02-08 05:42:07+00",5.6,6.6,,39.6,1177,-44,-440,1012.74,39.4,0
"2019-02-08 05:47:07+00",5.3,6.3,,39.7,1648,-52,-671,1012.76,39.5,0
"2019-02-08 05:52:07+00",5.5,6.5,,39.7,847,-74,-295,1012.69,39.5,0
"2019-02-08 05:57:07+00",5.3,5.3,,39.7,1248,725,-1119,1012.52,39.5,0
"2019-02-08 06:02:07+00",5.3,6.3,,39.7,1330,-66,-521,1012.36,39.5,0
"2019-02-08 06:07:07+00",4.8,5.8,,39.8,1712,-35,-709,1012.49,39.5,0
"2019-02-08 06:12:07+00",3.7,4.7,,39.9,1638,-3,-689,1012.51,39.6,0
"2019-02-08 06:17:07+00",4.2,5.2,,40,1719,0,-713,1012.54,39.6,0
"2019-02-08 06:22:07+00",4.9,5.9,,40,4209,-6,-1897,1012.32,39.6,0
"2019-02-08 06:27:07+00",4.3,4.3,,40,2352,-7,-1024,1012.27,39.7,0
"2019-02-08 06:32:07+00",3.4,4.4,,40,1656,14,-709,1012.34,39.7,0
"2019-02-08 06:37:07+00",4.1,5.1,,40.1,1081,84,-429,1012.39,39.8,0
"2019-02-08 06:42:07+00",5.0,6.0,,40.1,2681,128,-1184,1012.4,39.8,0
"2019-02-08 06:47:07+00",5.8,6.8,,40.3,3104,161,-1385,1012.38,39.9,0
"2019-02-08 06:52:07+00",5.0,6.0,,40.5,1831,153,-803,1012.31,40.1,0
"2019-02-08 06:57:07+00",5.3,6.3,,40.6,78,221,-32,1012.4,40.2,0
"2019-02-08 07:02:07+00",17.6,19.6,,40,17180,0,192,1013.15,40,-0.1
"2019-02-08 07:07:07+00",14.6,15.6,,40.4,-370,522,36,1013.22,40.1,0
"2019-02-08 07:12:07+00",12.3,13.3,,40.9,-269,452,32,1013.12,40.4,0
"2019-02-08 07:17:07+00",8.3,9.3,,41,29,331,-52,1012.93,40.7,0
"2019-02-08 07:22:07+00",9.3,10.3,,41.1,-97,382,-3,1012.99,40.8,0
"2019-02-08 07:27:07+00",8.7,9.7,,41.3,-98,358,7,1012.85,40.9,0
"2019-02-08 07:32:07+00",9.7,10.7,,41.4,-154,389,14,1012.93,41,0
"2019-02-08 07:37:07+00",10.2,11.2,,41.6,-169,413,18,1013.02,41.2,0
"2019-02-08 07:42:07+00",9.6,10.6,,41.7,76,401,-59,1012.81,41.3,0
"2019-02-08 07:47:07+00",8.3,10.3,,41.8,1317,334,-624,1012.86,41.4,0
"2019-02-08 07:52:07+00",8.6,10.6,,41.8,4296,337,-2034,1012.68,41.5,0
"2019-02-08 07:57:07+00",10.0,12.0,,41.7,2022,384,-947,1012.7,41.5,0
"2019-02-08 08:02:07+00",9.7,11.7,,41.5,1674,399,-782,1012.61,41.4,0
"2019-02-08 08:07:07+00",10.2,11.2,,41.4,3257,404,-1528,1012.55,41.2,0
"2019-02-08 08:12:07+00",9.4,10.4,,41.3,2486,385,-1160,1012.46,41.2,0
"2019-02-08 08:17:07+00",9.1,10.1,,41.2,1931,365,-899,1012.37,41.1,0
"2019-02-08 08:22:07+00",9.0,11.0,,41.2,3612,345,-1680,1012.32,41,0
"2019-02-08 08:27:07+00",8.6,9.6,,41.2,538,343,-247,1012.45,41,0
"2019-02-08 08:32:07+00",10.3,12.3,,41.2,1084,443,-529,1012.58,41,0
"2019-02-08 08:37:07+00",10.7,12.7,,41.2,52,452,-44,1012.45,41,0
"2019-02-08 08:42:07+00",12.2,14.2,,41.3,208,504,-125,1012.63,41,0
"2019-02-08 08:47:07+00",12.9,13.9,,41.3,-97,546,10,1012.66,41,0
"2019-02-08 08:52:07+00",11.3,13.3,,41.3,-81,470,17,1012.83,41.1,0
"2019-02-08 08:57:07+00",11.6,13.6,,41.3,-74,496,6,1012.88,41.1,0
"2019-02-08 09:02:07+00",11.4,13.4,,41.2,-84,487,24,1012.87,41,0
"2019-02-08 09:07:07+00",8.9,10.9,,41.1,370,370,-160,1012.75,41,0
"2019-02-08 09:12:07+00",4.9,5.9,,41,183,153,-22,1012.22,40.9,0
"2019-02-08 09:17:07+00",5.7,6.7,,40.9,171,152,5,1012.1,40.8,0
"2019-02-08 09:22:07+00",5.1,6.1,,40.9,191,95,6,1011.97,40.8,0
"2019-02-08 09:27:07+00",5.9,6.9,,40.9,234,-99,1,1011.64,40.8,0
"2019-02-08 09:32:07+00",5.5,6.5,,40.9,233,-12,4,1011.54,40.8,0
"2019-02-08 09:37:07+00",4.1,5.1,,40.8,168,4,17,1011.66,40.7,0
"2019-02-08 09:42:07+00",4.9,5.9,,40.7,201,-36,11,1011.43,40.6,0
"2019-02-08 09:47:07+00",6.0,7.0,,40.6,245,-75,7,1011.11,40.5,0
"2019-02-08 09:52:07+00",3.8,4.8,,40.6,157,-27,11,1011.23,40.5,0
"2019-02-08 09:57:07+00",2.8,3.8,,40.6,110,27,11,1011.46,40.5,0
"2019-02-08 10:02:07+00",2.5,2.5,,40.6,63,69,4,1011.71,40.4,0
"2019-02-08 10:07:07+00",2.8,3.8,,40.6,113,-1,5,1011.66,40.4,0
"2019-02-08 10:12:07+00",3.7,4.7,,40.5,116,-98,1,1011.79,40.4,0
"2019-02-08 10:17:07+00",3.8,3.8,,40.5,122,-100,2,1011.91,40.4,0
"2019-02-08 10:22:07+00",4.0,5.0,,40.3,130,-108,-2,1011.77,40.3,0
"2019-02-08 10:27:07+00",4.6,5.6,,40.2,117,-146,1,1011.75,40.1,0
"2019-02-08 10:32:07+00",3.2,4.2,,40.1,61,-119,0,1011.73,40.1,0
"2019-02-08 10:37:07+00",3.1,4.1,,40.1,88,-85,5,1011.78,40,0
"2019-02-08 10:42:07+00",2.9,3.9,,40.1,5,-112,0,1011.9,40,0
"2019-02-08 10:47:07+00",2.4,3.4,,40.1,15,-98,0,1011.87,39.9,0
"2019-02-08 10:52:07+00",3.2,4.2,,40.1,-99,-85,4,1012.07,40,0
"2019-02-08 10:57:07+00",3.0,4.0,,39.9,-122,-52,12,1012.11,40,0
"2019-02-08 11:02:07+00",3.6,4.6,,39.8,-144,-70,11,1012.3,39.9,0
"2019-02-08 11:07:07+00",3.7,4.7,,39.9,-145,-42,8,1012.29,39.9,0
"2019-02-08 11:12:07+00",1.5,2.5,,39.9,-47,-37,4,1012.14,39.8,0
"2019-02-08 11:17:07+00",5.1,6.1,,40,-184,-115,12,1012.38,39.9,0
"2019-02-08 11:22:07+00",4.7,5.7,,40.2,-173,-105,15,1012.49,40,0
"2019-02-08 11:27:07+00",4.1,6.1,,40.2,-122,-117,0,1012.29,40,0
"2019-02-08 11:32:07+00",4.0,5.0,,40.2,-163,-67,10,1012.37,40,0
"2019-02-08 11:37:07+00",3.7,4.7,,40.2,-150,-69,11,1012.41,40,0
"2019-02-08 11:42:07+00",5.0,6.0,,40.2,-201,-66,13,1012.53,40,0
"2019-02-08 11:47:07+00",6.4,7.4,,40.3,-263,-55,10,1012.73,40,0
"2019-02-08 11:52:07+00",6.1,7.1,,40.5,-246,-63,15,1012.65,40.1,0
"2019-02-08 11:57:07+00",2.1,3.1,,40.5,-86,25,5,1012.33,40.2,0
"2019-02-08 12:02:07+00",2.4,2.4,,40.6,-91,-7,8,1012.48,40.2,0
"2019-02-08 12:07:07+00",4.2,5.2,,40.7,-159,-90,11,1012.66,40.3,0
"2019-02-08 12:12:07+00",6.5,7.5,,40.8,-249,-137,12,1013.02,40.5,0
"2019-02-08 12:17:07+00",7.0,8.0,,40.7,-284,-77,16,1013.19,40.6,0
"2019-02-08 12:22:07+00",4.5,5.5,,40.8,-184,-11,10,1012.89,40.6,0
"2019-02-08 12:27:07+00",5.0,6.0,,40.9,-200,-44,7,1013.04,40.6,0
"2019-02-08 12:32:07+00",4.6,5.6,,40.9,-190,-16,1,1012.97,40.7,0
"2019-02-08 12:37:07+00",4.7,4.7,,41,-196,-10,7,1013.02,40.7,0
"2019-02-08 12:42:07+00",2.5,3.5,,41.1,-96,13,13,1012.75,40.8,0
"2019-02-08 12:47:07+00",2.8,3.8,,41.2,-109,4,6,1012.73,40.9,0
"2019-02-08 12:52:07+00",2.9,2.9,,41.3,-111,-50,8,1012.73,41.1,0.7
"2019-02-08 12:57:07+00",3.8,4.8,,41.5,-137,-86,4,1012.96,41.3,1.5
"2019-02-08 13:02:07+00",5.0,6.0,,41.5,-179,-114,2,1013.08,41.5,3
"2019-02-08 13:07:07+00",6.5,7.5,,41.7,-272,-84,22,1013.37,41.6,0
"2019-02-08 13:12:07+00",4.3,5.3,,41.7,-176,-64,26,1013.18,41.7,0
"2019-02-08 13:17:07+00",3.8,4.8,,41.7,-102,-128,7,1013.17,41.7,0.2
"2019-02-08 13:22:07+00",5.0,6.0,,41.6,-34,-200,-3,1012.88,41.6,0.5
"2019-02-08 13:27:07+00",5.7,6.7,,41.6,-18,-236,-6,1012.79,41.6,0
"2019-02-08 13:32:07+00",5.9,7.9,,41.7,-30,-246,-4,1012.79,41.6,0
"2019-02-08 13:37:07+00",6.2,8.2,,41.9,-6,-256,-3,1012.77,41.8,0
"2019-02-08 13:42:07+00",7.1,8.1,,41.5,24,-304,-12,1012.67,41.6,0
"2019-02-08 13:47:07+00",5.7,6.7,,41.3,5,-231,-9,1012.77,41.2,0
"2019-02-08 13:52:07+00",6.2,7.2,,41.5,2,-251,-10,1012.61,41.3,0
"2019-02-08 13:57:07+00",7.2,8.2,,41.5,32,-299,-9,1012.59,41.4,0
"2019-02-08 14:02:07+00",8.7,10.7,,41.1,61,-359,-10,1012.36,41,0
"2019-02-08 14:07:07+00",9.3,11.3,,40.6,60,-380,-20,1012.22,40.6,0.6
"2019-02-08 14:12:07+00",6.6,9.6,,40.6,-4,-264,6,1012.24,40.5,13.8
"2019-02-08 14:17:07+00",9.1,11.1,,40.8,-3,-377,-22,1012.06,40.7,19.3
"2019-02-08 14:22:07+00",9.5,13.5,,41,-24,-403,-5,1012.02,40.9,0.7
"2019-02-08 14:27:07+00",10.3,13.3,,41.4,-69,-423,-28,1011.96,41.1,3.7
"2019-02-08 14:32:07+00",11.9,14.9,,42.2,-164,-380,-80,1011.96,41.9,7.5
"2019-02-08 14:37:07+00",12.7,14.7,,42.7,-247,-385,-80,1011.94,42.5,11.6
"2019-02-08 14:42:07+00",13.8,16.8,,42.5,248,-1487,488,1012.01,42.3,17.7
"2019-02-08 14:47:07+00",15.3,18.3,,42.7,72,-1136,308,1011.87,42.4,30.9
"2019-02-08 14:52:07+00",15.8,17.8,,42.9,-347,-572,-62,1011.87,42.7,45.3
"2019-02-08 14:57:07+00",14.1,16.1,,43.2,-1375,1237,-993,1011.78,43.1,81
"2019-02-08 15:02:07+00",14.9,16.9,,43.6,-1229,932,-821,1011.91,43.4,58.1
"2019-02-08 15:07:07+00",15.2,17.2,,43.6,-411,-551,-3,1012.09,43.4,58.8
"2019-02-08 15:12:07+00",14.0,15.0,,43.9,-230,-552,-18,1011.71,43.6,13.8
"2019-02-08 15:17:07+00",11.9,12.9,,44.3,-345,-412,11,1012.14,43.7,4.8
"2019-02-08 15:22:07+00",11.8,13.8,,44.3,-344,-411,11,1012.21,43.8,0.4
"2019-02-08 15:27:07+00",11.4,13.4,,44.3,-356,-363,3,1012.07,43.8,1
"2019-02-08 15:32:07+00",11.4,13.4,,44.1,-409,-285,3,1012.16,43.7,13.2
"2019-02-08 15:37:07+00",8.5,9.5,,44,-353,-168,14,1012.1,43.6,29.7
"2019-02-08 15:42:07+00",13.3,15.3,,43.9,-538,-238,-24,1012.29,43.6,47.7
"2019-02-08 15:47:07+00",12.7,14.7,,43.6,-449,-308,-27,1012.21,43.4,30.8
"2019-02-08 15:52:07+00",12.4,16.4,,43.6,-499,-263,24,1012.26,43.4,37.4
"2019-02-08 15:57:07+00",11.4,14.4,,43.2,-470,-230,8,1012.2,43.2,76.9
"2019-02-08 16:02:07+00",17.8,22.8,,43.6,-639,-451,25,1012.51,43.3,85.7
"2019-02-08 16:07:07+00",17.1,19.1,,43.8,-644,-414,31,1012.48,43.6,92.2
"2019-02-08 16:12:07+00",14.1,16.1,,43.9,-605,-225,14,1012.51,43.7,84.7
"2019-02-08 16:17:07+00",13.5,16.5,,44.4,-568,-151,8,1012.49,44,86.6
"2019-02-08 16:22:07+00",12.3,14.3,,44.8,-523,-222,47,1012.61,44.4,119.5
"2019-02-08 16:27:07+00",11.3,13.3,,45,-495,-206,34,1012.97,44.7,115.5
"2019-02-08 16:32:07+00",9.8,10.8,,45.3,-416,-193,26,1013.07,45.2,166.7
"2019-02-08 16:37:07+00",9.6,11.6,,45.9,-402,-89,22,1013.15,45.9,235.3
"2019-02-08 16:42:07+00",9.2,10.2,,46.8,-392,87,35,1012.95,46.3,105.9
"2019-02-08 16:47:07+00",10.2,11.2,,48,-425,180,20,1012.82,46.8,113.2
"2019-02-08 16:52:07+00",7.2,8.2,,47.7,-311,68,13,1012.72,46.8,173
"2019-02-08 16:57:07+00",6.4,8.4,,48.2,-275,27,6,1012.68,47.3,185
"2019-02-08 17:02:07+00",9.3,11.3,,49.6,-408,89,19,1013.01,48.2,191.5
"2019-02-08 17:07:07+00",8.7,9.7,,49.6,-352,178,15,1013.07,49.1,116.5
"2019-02-08 17:12:07+00",7.7,8.7,,49.1,-300,168,21,1013.06,49.1,54.2
"2019-02-08 17:17:07+00",10.0,13.0,,49.3,-409,180,17,1013.21,49,40.2
"2019-02-08 17:22:07+00",13.7,15.7,,49.9,-570,249,47,1013.35,48.9,11.7
"2019-02-08 17:27:07+00",18.4,22.4,,50.2,-788,318,43,1013.18,48.7,5.7
"2019-02-08 17:32:07+00",16.3,18.3,,49.6,-682,261,32,1013.44,48.2,0.8
"2019-02-08 17:37:07+00",15.5,17.5,,49.3,-650,245,49,1013.49,47.7,0
"2019-02-08 17:42:07+00",15.3,16.3,,49.2,-631,281,37,1013.46,47.3,0
"2019-02-08 17:47:07+00",15.5,17.5,,49.2,-633,288,42,1013.52,47.4,0
"2019-02-08 17:52:07+00",13.1,16.1,,49,-554,200,29,1013.57,47.3,0
"2019-02-08 17:57:07+00",12.8,13.8,,48.7,-531,232,30,1013.6,47,0.1
"2019-02-08 18:02:07+00",13.9,14.9,,48.5,-589,222,30,1013.68,46.7,0
"2019-02-08 18:07:07+00",15.2,17.2,,48.4,-615,317,28,1013.7,46.8,0
"2019-02-08 18:12:07+00",16.3,17.3,,48.6,-666,301,27,1013.75,46.8,9
"2019-02-08 18:17:07+00",14.6,16.6,,48.3,-619,208,38,1013.64,46.6,17.1
"2019-02-08 18:22:07+00",14.9,16.9,,48.9,-651,166,38,1013.69,47,39.5
"2019-02-08 18:27:07+00",14.9,16.9,,48.9,-631,227,40,1013.67,46.9,48.3
"2019-02-08 18:32:07+00",16.7,18.7,,48.9,-699,245,45,1013.61,47.2,112
"2019-02-08 18:37:07+00",15.4,16.4,,48.9,-664,224,42,1013.61,47.6,152.8
"2019-02-08 18:42:07+00",16.8,18.8,,49.1,-696,289,53,1013.65,48.1,122.1
"2019-02-08 18:47:07+00",19.0,22.0,,49.3,-775,353,43,1013.67,48.2,132.9
"2019-02-08 18:52:07+00",18.4,22.4,,49.5,-762,319,51,1013.73,48.6,118.7
"2019-02-08 18:57:07+00",19.3,22.3,,49.3,-823,306,39,1013.78,48.4,106.6
"2019-02-08 19:02:07+00",21.0,25.0,,49.6,-839,451,51,1013.76,48.6,125.5
"2019-02-08 19:07:07+00",23.4,30.4,,50.2,-951,503,67,1013.71,49,121.2
"2019-02-08 19:12:07+00",25.9,32.9,,50.9,-994,628,57,1013.73,50.2,268.8
"2019-02-08 19:17:07+00",27.4,31.4,,51.3,-1065,625,64,1013.74,50.8,231
"2019-02-08 19:22:07+00",24.6,28.6,,51,-941,569,51,1013.85,50.7,192.8
"2019-02-08 19:27:07+00",19.5,23.5,,50.9,-797,393,50,1013.91,50.7,229.1
"2019-02-08 19:32:07+00",19.0,24.0,,51.3,-783,355,59,1013.88,50.9,222.5
"2019-02-08 19:37:07+00",24.5,27.5,,51.5,-977,499,55,1013.91,51.3,201.3
"2019-02-08 19:42:07+00",22.0,24.0,,51.7,-901,447,77,1014.01,51.6,239.3
"2019-02-08 19:47:07+00",26.2,30.2,,52.3,-977,642,70,1013.94,51.8,201.5
"2019-02-08 19:52:07+00",21.0,25.0,,52.4,-821,491,53,1014.06,52.3,219.7
"2019-02-08 19:57:07+00",19.2,24.2,,51.9,-748,460,70,1014.11,52.2,205.1
"2019-02-08 20:02:07+00",26.5,31.5,,52.2,-970,706,96,1014.19,52,178
"2019-02-08 20:07:07+00",30.5,34.5,,52.4,-1173,722,75,1014.25,51.8,199.2
"2019-02-08 20:12:07+00",23.6,30.6,,52.2,-934,516,46,1014.39,52,224.9
"2019-02-08 20:17:07+00",25.3,28.3,,52.6,-945,614,83,1014.35,52.4,214.6
"2019-02-08 20:22:07+00",23.8,26.8,,52.2,-924,542,91,1014.61,52.2,206
"2019-02-08 20:27:07+00",23.5,27.5,,51.9,-947,474,70,1014.6,52,137.2
"2019-02-08 20:32:07+00",22.6,27.6,,51.5,-892,471,49,1014.71,51.2,123
"2019-02-08 20:37:07+00",26.9,31.9,,52.1,-1013,670,70,1014.89,51.4,101
"2019-02-08 20:42:07+00",21.7,23.7,,52,-858,474,53,1015.02,51.4,64.5
"2019-02-08 20:47:07+00",22.2,25.2,,52.1,-906,452,64,1015.05,51.3,44.9
"2019-02-08 20:52:07+00",22.1,24.1,,51.6,-858,483,55,1015.1,50.8,25.9
"2019-02-08 20:57:07+00",23.0,26.0,,51.6,-925,472,81,1015.17,50.6,124.8
"2019-02-08 21:02:07+00",20.3,22.3,,51.7,-826,396,48,1015.28,51.2,146.8
"2019-02-08 21:07:07+00",24.2,29.2,,51.1,-958,504,52,1015.27,50.9,116.3
"2019-02-08 21:12:07+00",29.2,33.2,,51.4,-1127,652,71,1015.2,50.7,82.8
"2019-02-08 21:17:07+00",28.5,31.5,,51.3,-1132,611,79,1015.26,50.6,74
"2019-02-08 21:22:07+00",22.9,25.9,,50.5,-909,505,53,1015.56,49.9,38.3
"2019-02-08 21:27:07+00",28.4,32.4,,50.9,-1194,450,75,1015.8,49.7,59.2
"2019-02-08 21:32:07+00",29.0,33.0,,50.7,-1252,360,88,1015.76,49.5,19.2
"2019-02-08 21:37:07+00",25.3,28.3,,50.7,-1063,424,64,1016.09,49.5,10.3
"2019-02-08 21:42:07+00",30.8,37.8,,50.3,-1266,539,70,1016.14,48.9,8.6
"2019-02-08 21:47:07+00",28.1,32.1,,49.5,-1168,507,79,1016.18,48.4,2
"2019-02-08 21:52:07+00",30.7,34.7,,49.8,-1295,508,70,1016.39,48.3,0.2
"2019-02-08 21:57:07+00",26.1,28.1,,49,-1061,514,63,1016.46,48,0
"2019-02-08 22:02:07+00",23.8,29.8,,48.7,-968,451,55,1016.53,47.4,0
"2019-02-08 22:07:07+00",25.1,30.1,,48.6,-1032,453,77,1016.52,47.2,0
"2019-02-08 22:12:07+00",29.1,33.1,,48.8,-1190,515,62,1016.37,47.1,0
"2019-02-08 22:17:07+00",24.6,27.6,,48.2,-1035,425,66,1016.65,47,0
"2019-02-08 22:22:07+00",21.3,24.3,,48,-857,424,55,1016.75,46.6,0
"2019-02-08 22:27:07+00",18.4,20.4,,47.4,-718,422,22,1016.78,45.9,0
"2019-02-08 22:32:07+00",21.7,25.7,,47.6,-848,502,51,1016.91,45.7,0
"2019-02-08 22:37:07+00",19.8,21.8,,47.3,-784,441,45,1017.06,45.5,0
"2019-02-08 22:42:07+00",18.5,23.5,,47.2,-708,433,48,1017.12,45.3,0
"2019-02-08 22:47:07+00",17.3,20.3,,47,-672,396,56,1017.12,45.1,0
"2019-02-08 22:52:07+00",17.1,21.1,,46.4,-653,406,49,1017.28,44.9,0
"2019-02-08 22:57:07+00",18.3,21.3,,46.2,-706,434,48,1017.29,44.4,0
"2019-02-08 23:02:07+00",19.0,22.0,,46,-716,446,40,1017.25,44.3,0
"2019-02-08 23:07:07+00",20.8,22.8,,46.3,-783,504,58,1017.38,44.4,0
"2019-02-08 23:12:07+00",20.0,23.0,,46.3,-772,460,59,1017.67,44.5,0
"2019-02-08 23:17:07+00",17.9,19.9,,46.1,-722,370,34,1017.94,44.3,0
"2019-02-08 23:22:07+00",17.6,20.6,,45.4,-705,369,56,1018.01,44,0
"2019-02-08 23:27:07+00",17.6,19.6,,45,-724,324,38,1018.19,43.6,0
"2019-02-08 23:32:07+00",15.9,16.9,,44.6,-667,255,29,1018.33,43.1,0
"2019-02-08 23:37:07+00",14.8,17.8,,44.1,-626,229,45,1018.44,42.7,0
"2019-02-08 23:42:07+00",17.5,19.5,,44.4,-698,331,48,1018.46,42.6,0
"2019-02-08 23:47:07+00",19.4,24.4,,44.7,-774,401,47,1018.63,42.9,0
"2019-02-08 23:52:07+00",21.8,27.8,,44.9,-913,382,48,1018.72,43.3,0
"2019-02-08 23:57:07+00",23.6,27.6,,44.9,-984,399,45,1018.77,43.5,0
